This is the latest recevied weather packets stored in our database for station/object HB9TJR-3. If no packets are shown the sender has not sent any weather packets the latest 10 day(s).
| Time | Temp. | Humidity | Pressure | Rain* | Wind** | Luminosity | Snow |
|---|---|---|---|---|---|---|---|
| 1787530531 | 15° C | 66% | 870.2 hPa | 0 mm | - | - | - |
| 1787529571 | 15° C | 66% | 870.4 hPa | 0 mm | - | - | - |
| 1787528611 | 15° C | 65% | 870.5 hPa | 0 mm | - | - | - |
| 1787526691 | 15° C | 67% | 870.5 hPa | 0 mm | - | - | - |
| 1787525731 | 14.44° C | 66% | 870.6 hPa | 0 mm | - | - | - |
| 1787524771 | 14.44° C | 70% | 870.6 hPa | 0 mm | - | - | - |
| 1787523811 | 14.44° C | 70% | 870.6 hPa | 0 mm | - | - | - |
| 1787522851 | 14.44° C | 70% | 870.7 hPa | 0 mm | - | - | - |
| 1787521891 | 15° C | 71% | 870.8 hPa | 0 mm | - | - | - |
| 1787520931 | 15° C | 68% | 870.7 hPa | 0 mm | - | - | - |
| 1787519971 | 14.44° C | 72% | 870.7 hPa | 0 mm | - | - | - |
| 1787519013 | 14.44° C | 67% | 870.7 hPa | 0 mm | - | - | - |
| 1787518051 | 14.44° C | 65% | 870.7 hPa | 0 mm | - | - | - |
| 1787517091 | 15° C | 63% | 870.9 hPa | 0 mm | - | - | - |
| 1787516131 | 15° C | 64% | 870.8 hPa | 0 mm | - | - | - |
| 1787515171 | 15° C | 64% | 870.8 hPa | 0 mm | - | - | - |
| 1787514210 | 15.56° C | 63% | 870.8 hPa | 0 mm | - | - | - |
| 1787513251 | 15.56° C | 63% | 871.1 hPa | 0 mm | - | - | - |
| 1787512292 | 16.11° C | 63% | 870.9 hPa | 0 mm | - | - | - |
| 1787511331 | 15.56° C | 64% | 870.8 hPa | 0 mm | - | - | - |
| 1787510371 | 15.56° C | 64% | 870.8 hPa | 0 mm | - | - | - |
| 1787509411 | 15.56° C | 65% | 870.7 hPa | 0 mm | - | - | - |
| 1787507491 | 16.67° C | 65% | 870.8 hPa | 0 mm | - | - | - |
| 1787506530 | 16.67° C | 64% | 870.8 hPa | 0 mm | - | - | - |
| 1787505570 | 16.67° C | 61% | 870.9 hPa | 0 mm | - | - | - |
* Rain latest hour (hover to see other rain measurements)
** Current wind speed in m/s (hover to see current wind gust speed)